This is the latest recevied weather packets stored in our database for station/object KE8AFF-13. If no packets are shown the sender has not sent any weather packets the latest 1 day(s).
| Time | Temp. | Humidity | Pressure | Rain* | Wind** | Luminosity | Snow |
|---|---|---|---|---|---|---|---|
| 1777983844 | 15.56° C | 84% | 1006.3 hPa | 0 mm | 2.24 m/s, 216° | 153 W/m² | - |
| 1777983540 | 15° C | 84% | 1006.5 hPa | 0 mm | 3.13 m/s, 204° | 142 W/m² | - |
| 1777983238 | 15° C | 84% | 1006.3 hPa | 0 mm | 2.24 m/s, 243° | 153 W/m² | - |
| 1777982933 | 15° C | 85% | 1006.3 hPa | 0 mm | 2.24 m/s, 222° | 103 W/m² | - |
| 1777982630 | 15° C | 85% | 1006.3 hPa | 0 mm | 2.68 m/s, 222° | 83 W/m² | - |
| 1777982328 | 15° C | 85% | 1006.3 hPa | 0 mm | 0.89 m/s, 251° | 65 W/m² | - |
| 1777982026 | 15° C | 85% | 1006 hPa | 0 mm | 1.79 m/s, 198° | 47 W/m² | - |
| 1777981724 | 15° C | 85% | 1005.9 hPa | 0 mm | 1.34 m/s, 220° | 37 W/m² | - |
| 1777981419 | 15° C | 85% | 1005.8 hPa | 0 mm | 1.79 m/s, 218° | 32 W/m² | - |
| 1777981116 | 15° C | 85% | 1005.4 hPa | 0 mm | 3.58 m/s, 212° | 29 W/m² | - |
| 1777980813 | 15° C | 85% | 1005 hPa | 0 mm | 4.92 m/s, 209° | 29 W/m² | - |
| 1777980509 | 14.44° C | 86% | 1004.7 hPa | 0 mm | 2.68 m/s, 199° | 23 W/m² | - |
| 1777980207 | 14.44° C | 86% | 1004.7 hPa | 0 mm | 4.02 m/s, 215° | 19 W/m² | - |
| 1777979902 | 14.44° C | 86% | 1004.1 hPa | 0 mm | 5.36 m/s, 204° | 19 W/m² | - |
| 1777979597 | 14.44° C | 86% | 1004.3 hPa | 0 mm | 4.47 m/s, 221° | 15 W/m² | - |
| 1777979294 | 14.44° C | 86% | 1004.2 hPa | 0 mm | 5.36 m/s, 218° | 7 W/m² | - |
| 1777978991 | 14.44° C | 86% | 1004.1 hPa | 0 mm | 3.58 m/s, 189° | 7 W/m² | - |
| 1777978688 | 14.44° C | 86% | 1004.4 hPa | 0 mm | 3.13 m/s, 195° | 10 W/m² | - |
| 1777978383 | 14.44° C | 86% | 1004.3 hPa | 0 mm | 3.58 m/s, 202° | 6 W/m² | - |
| 1777978080 | 14.44° C | 85% | 1004.4 hPa | 0 mm | 3.13 m/s, 190° | 5 W/m² | - |
| 1777977778 | 14.44° C | 84% | 1004.8 hPa | 0 mm | 3.58 m/s, 201° | 2 W/m² | - |
| 1777977474 | 14.44° C | 84% | 1005 hPa | 0 mm | 3.58 m/s, 204° | 0 W/m² | - |
| 1777977172 | 14.44° C | 84% | 1004.9 hPa | 0 mm | 3.58 m/s, 217° | 0 W/m² | - |
| 1777976869 | 15° C | 84% | 1004.9 hPa | 0 mm | 2.24 m/s, 209° | 0 W/m² | - |
| 1777976567 | 14.44° C | 84% | 1005 hPa | 0 mm | 4.47 m/s, 217° | 0 W/m² | - |
* Rain latest hour (hover to see other rain measurements)
** Current wind speed in m/s (hover to see current wind gust speed)